Location: Asheville, NC
(35.6000°N, 82.5500°W)
Time: 01:32:33
(UTC-05:00)

SEEDS - Pass Details

Date: 08 January 2018
Orbit: 586 x 606 km, 97.5° (Epoch: 20 January)

Event Time Altitude Azimuth Distance (km) Brightness Sun altitude
Rises 19:47:59 0° 194° (SSW) 2,844 ? -26.6°
Reaches altitude 10° 19:50:27 10° 207° (SSW) 1,944 ? -27.1°
Maximum altitude 19:53:58 25° 264° (W) 1,215 ? -27.8°
Drops below altitude 10° 19:57:31 10° 321° (NW) 1,951 ? -28.6°
Sets 20:00:00 0° 334° (NNW) 2,855 ? -29.1°
